Home   Weather   Castrop-Rauxel   Past weeks

Flag for Germany Past Weather in Castrop-Rauxel, North Rhine-Westphalia, Germany — Yesterday and Last 2 Weeks

Now
59 °F

Clear.


Feels Like: 57 °F
Forecast: 53 / 67 °F
Wind: 9 mph from South

Location: Duesseldorf

Current Time: Oct 17, 2017 at 4:06:48 am

Latest Report: Oct 17, 2017 at 3:20 am


Visibility: 10 mi

Pressure: 30.15 "Hg

Humidity: 82%

Dew Point: 54 °F

Location of Castrop-RauxelLocation

Past Weather in Castrop-Rauxel — Graph

°F

Castrop-Rauxel Temperature Yesterday

Maximum temperature yesterday: 75 °F (at 2:20 pm)
Minimum temperature yesterday: 59 °F (at 2:50 am)
Average temperature yesterday: 66 °F

High & Low Weather Summary for the Past Weeks

 TemperatureHumidityPressure
High75 °F (Oct 16, 2:20 pm)100% (Oct 8, 2:20 am)30.33 "Hg (Oct 8, 2:20 am)
Low45 °F (Oct 9, 3:20 am)53% (Oct 15, 3:20 pm)29.71 "Hg (Oct 5, 10:50 am)
Average57 °F80%30.09 "Hg
* Reported Oct 2 2:20 am — Oct 17 2:50 am, Castrop-Rauxel. Weather by CustomWeather, © 2017

Note: Actual official high and low records may vary slightly from our data, if they occured in-between our weather recording intervals... More about our weather records

Advertising

Castrop-Rauxel Weather History for the Previous 24 Hours

Scroll right to see more
 ConditionsComfort  
Time TempWeatherWind HumidityBarometerVisibility
2:50 am
Tue, Oct 17
61 °FClear.10 mph77%30.15 "Hg10 mi
2:20 am61 °FClear.10 mph77%30.15 "Hg10 mi
1:50 am63 °FClear.12 mph73%30.15 "Hg10 mi
1:20 am63 °FClear.12 mph73%30.15 "Hg10 mi
12:50 am63 °FClear.14 mph77%30.15 "Hg10 mi
12:20 am64 °FClear.13 mph73%30.15 "Hg10 mi
11:50 pm
Mon, Oct 16
64 °FClear.14 mph73%30.15 "Hg10 mi
11:20 pm64 °FClear.12 mph78%30.15 "Hg10 mi
10:50 pm64 °FClear.14 mph78%30.15 "Hg10 mi
10:20 pm66 °FClear.10 mph73%30.15 "Hg10 mi
9:50 pm66 °FPassing clouds.13 mph78%30.15 "HgN/A
9:20 pm68 °FClear.14 mph73%30.12 "Hg10 mi
8:50 pm68 °FClear.14 mph73%30.12 "Hg10 mi
8:20 pm68 °FClear.15 mph69%30.12 "Hg10 mi
7:50 pm70 °FClear.15 mph64%30.12 "Hg10 mi
7:20 pm70 °FClear.15 mph69%30.12 "Hg10 mi
6:50 pm72 °FClear.14 mph65%30.12 "Hg10 mi
6:20 pm72 °FSunny.15 mph65%30.12 "Hg10 mi
5:50 pm73 °FSunny.12 mph61%30.12 "Hg10 mi
5:20 pm73 °FSunny.10 mph61%30.12 "Hg10 mi
4:50 pm73 °FSunny.12 mph65%30.15 "Hg10 mi
4:20 pm75 °FSunny.10 mph57%30.15 "Hg10 mi
3:50 pm75 °FSunny.13 mph57%30.15 "Hg10 mi
3:20 pm75 °FPassing clouds.12 mph57%30.15 "HgN/A
2:50 pm75 °FSunny.13 mph57%30.15 "Hg10 mi
2:20 pm75 °FSunny.12 mph57%30.18 "Hg10 mi
1:50 pm73 °FSunny.10 mph57%30.18 "Hg10 mi
1:20 pm73 °FSunny.10 mph57%30.18 "Hg10 mi
12:50 pm72 °FPassing clouds.10 mph61%30.18 "HgN/A
12:20 pm70 °FSunny.12 mph64%30.18 "Hg10 mi
11:50 am70 °FSunny.9 mph64%30.18 "Hg10 mi
11:20 am68 °FSunny.9 mph64%30.18 "Hg10 mi
10:50 am66 °FSunny.12 mph68%30.18 "Hg10 mi
10:20 am64 °FSunny.14 mph73%30.18 "Hg10 mi
9:50 am63 °FSunny.14 mph73%30.18 "Hg10 mi
9:20 am61 °FSunny.15 mph77%30.15 "Hg10 mi
8:50 am59 °FSunny.17 mph82%30.15 "Hg10 mi
8:20 am59 °FSunny.14 mph82%30.15 "Hg10 mi
7:50 am59 °FClear.15 mph82%30.15 "Hg10 mi
7:20 am61 °FClear.14 mph77%30.15 "Hg10 mi
6:50 am59 °FClear.14 mph82%30.15 "Hg10 mi
6:20 am59 °FClear.14 mph82%30.18 "Hg10 mi
5:50 am59 °FClear.15 mph82%30.15 "Hg10 mi
5:20 am59 °FClear.15 mph82%30.18 "Hg10 mi
4:50 am59 °FClear.15 mph82%30.18 "Hg10 mi
4:20 am59 °FClear.16 mph82%30.18 "Hg10 mi
Weather by CustomWeather, © 2017

See weather overview